Cincinnati, OH

6:30 AM EDT on July 30, 2016 (GMT -0400)
Cincinnati Municipal-Lunken

Weather History for KLUK - May, 2013

Change the Weather History Date:

Friday, May 10, 2013

  Actual Average Record
Temperature  
Mean Temperature 62 °F -  
Max Temperature 69 °F 72 °F 87 °F (1979)
Min Temperature 57 °F 48 °F 27 °F (1966)
Degree Days  
Heating Degree Days 2    
Growing Degree Days 12 (Base 50)    
Moisture  
Dew Point 61 °F    
Average Humidity 96    
Maximum Humidity 100    
Minimum Humidity 73    
Precipitation  
Precipitation 0.55 in - - ()
Sea Level Pressure  
Sea Level Pressure 29.89 in    
Wind  
Wind Speed 4 mph (SSW)    
Max Wind Speed 12 mph    
Max Gust Speed 20 mph    
Visibility 5 miles    
Events Fog , Rain , Thunderstorm    
Averages and records for this station are not official NWS values.
T = Trace of Precipitation, MM = Missing Value Source: NWS Daily Summary

Daily Weather History Graph

Daily Weather History Graph

Search for Another Location

Airport or City:

Trip Planner

Search our weather history database for the weather conditions in past years. The results will help you decide how hot, cold, wet, or windy it might be!

Date:

Astronomy

May. 10, 2013 Rise Set
Actual Time 6:29 AM EDT 8:39 PM EDT
Civil Twilight 5:59 AM EDT 9:09 PM EDT
Nautical Twilight 5:23 AM EDT 9:45 PM EDT
Astronomical Twilight 4:43 AM EDT 10:25 PM EDT
Moon 6:52 AM EDT (5/10) 9:28 PM EDT (5/10)
Length of Visible Light 15h 09m
Length of Day
14h 10m
New Moon, 0% of the Moon is Illuminated
May 10
New Moon
May 18
First Quarter
May 25
Full
May 31
Last Quarter
Jun 8
New

Hourly Weather History & Observations

Time (EDT) Temp. Dew Point Humidity Pressure Visibility Wind Dir Wind Speed Gust Speed Precip Events Conditions
12:53 AM 63.0 °F 60.1 °F 90% 29.94 in 10.0 mi Calm Calm - N/A   Overcast
1:35 AM 66.2 °F 57.2 °F 73% 29.94 in 10.0 mi SSW 9.2 mph - N/A Thunderstorm Overcast
1:51 AM 64.4 °F 60.8 °F 88% 29.96 in 2.0 mi WNW 6.9 mph 19.6 mph 0.12 in Rain , Thunderstorm Light Rain
1:53 AM 64.0 °F 60.1 °F 87% 29.95 in 2.5 mi NW 5.8 mph 19.6 mph 0.12 in Rain , Thunderstorm Light Rain
2:00 AM 64.4 °F 60.8 °F 88% 29.95 in 4.0 mi Variable 3.5 mph - 0.02 in Rain , Thunderstorm Light Rain
2:09 AM 62.6 °F 62.6 °F 100% 29.94 in 10.0 mi SE 3.5 mph - 0.02 in   Overcast
2:53 AM 62.1 °F 61.0 °F 96% 29.92 in 6.0 mi SE 4.6 mph - 0.03 in   Scattered Clouds
3:36 AM 60.8 °F 60.8 °F 100% 29.93 in 1.8 mi Calm Calm - N/A   Clear
3:39 AM 59.0 °F 59.0 °F 100% 29.93 in 1.0 mi Calm Calm - N/A   Mist
3:48 AM 59.0 °F 59.0 °F 100% 29.93 in 0.5 mi Calm Calm - N/A Fog Fog
3:53 AM 59.0 °F 59.0 °F 100% 29.92 in 0.2 mi Calm Calm - N/A Fog Fog
4:41 AM 57.2 °F 57.2 °F 100% 29.92 in 0.5 mi Calm Calm - N/A Fog Fog
4:53 AM 57.9 °F 57.9 °F 100% 29.91 in 0.8 mi Calm Calm - N/A   Scattered Clouds
5:17 AM 57.2 °F 57.2 °F 100% 29.91 in 0.2 mi Calm Calm - N/A Fog Fog
5:39 AM 57.2 °F 57.2 °F 100% 29.91 in 0.8 mi Calm Calm - N/A   Clear
5:47 AM 57.2 °F 57.2 °F 100% 29.90 in 0.2 mi Calm Calm - N/A Fog Fog
5:53 AM 57.9 °F 57.9 °F 100% 29.90 in 0.8 mi Calm Calm - N/A   Mist
6:00 AM 57.2 °F 57.2 °F 100% 29.91 in 0.8 mi Calm Calm - N/A   Clear
6:14 AM 57.2 °F 57.2 °F 100% 29.91 in 0.2 mi Calm Calm - N/A Fog Fog
6:34 AM 57.2 °F 57.2 °F 100% 29.91 in 0.8 mi Calm Calm - N/A   Mist
6:49 AM 57.2 °F 57.2 °F 100% 29.91 in 0.2 mi Calm Calm - N/A Fog Fog
6:53 AM 57.9 °F 57.9 °F 100% 29.90 in 3.0 mi Calm Calm - N/A Fog Patches of Fog
7:53 AM 61.0 °F 60.1 °F 97% 29.91 in 10.0 mi Calm Calm - N/A   Clear
8:53 AM 64.4 °F 60.8 °F 88% 29.91 in 10.0 mi South 9.2 mph - N/A   Scattered Clouds
9:53 AM 68.0 °F 62.1 °F 81% 29.89 in 10.0 mi SSW 5.8 mph - N/A   Mostly Cloudy
10:53 AM 68.0 °F 62.1 °F 81% 29.90 in 10.0 mi South 9.2 mph - N/A   Mostly Cloudy
11:53 AM 68.0 °F 63.0 °F 84% 29.89 in 10.0 mi South 8.1 mph - 0.00 in Rain Light Rain
12:53 PM 63.0 °F 62.1 °F 97% 29.92 in 7.0 mi SW 8.1 mph - 0.11 in Rain Light Rain
1:53 PM 64.0 °F 63.0 °F 96% 29.90 in 5.0 mi SW 6.9 mph - 0.03 in Rain Light Rain
2:53 PM 64.9 °F 63.0 °F 93% 29.89 in 6.0 mi SW 9.2 mph - 0.02 in Rain Light Rain
3:00 PM 64.4 °F 62.6 °F 94% 29.90 in 2.5 mi SSW 5.8 mph - 0.02 in Rain Heavy Rain
3:07 PM 64.4 °F 62.6 °F 94% 29.89 in 5.0 mi SSW 6.9 mph - 0.02 in Rain Light Rain
3:18 PM 64.4 °F 62.6 °F 94% 29.89 in 7.0 mi SSW 9.2 mph - 0.03 in Rain Light Rain
3:53 PM 64.9 °F 64.0 °F 97% 29.86 in 4.0 mi South 4.6 mph - 0.08 in Rain Rain
4:53 PM 64.0 °F 63.0 °F 96% 29.84 in 4.0 mi SSW 11.5 mph - 0.05 in Rain Rain
5:53 PM 64.0 °F 63.0 °F 96% 29.84 in 4.0 mi SW 5.8 mph - 0.10 in Rain Light Rain
6:36 PM 64.4 °F 62.6 °F 94% 29.84 in 10.0 mi SSW 4.6 mph - 0.00 in Rain Light Rain
6:53 PM 64.0 °F 63.0 °F 96% 29.83 in 10.0 mi SSW 6.9 mph - 0.00 in   Overcast
7:47 PM 62.6 °F 62.6 °F 100% 29.84 in 4.0 mi SSW 4.6 mph - 0.01 in Rain Rain
7:53 PM 63.0 °F 63.0 °F 100% 29.83 in 5.0 mi SSW 6.9 mph - 0.01 in Rain Light Rain
8:00 PM 62.6 °F 62.6 °F 100% 29.84 in 8.0 mi SSW 5.8 mph - 0.00 in Rain Light Rain
8:53 PM 62.1 °F 62.1 °F 100% 29.86 in 10.0 mi SSW 6.9 mph - 0.00 in   Overcast
9:00 PM 62.6 °F 62.6 °F 100% 29.86 in 10.0 mi SSW 4.6 mph - N/A   Overcast
9:53 PM 60.1 °F 60.1 °F 100% 29.86 in 10.0 mi SSW 3.5 mph - N/A   Clear
10:35 PM 60.8 °F 60.8 °F 100% 29.87 in 8.0 mi South 4.6 mph - N/A   Overcast
10:42 PM 60.8 °F 60.8 °F 100% 29.87 in 8.0 mi South 5.8 mph - N/A   Overcast
10:53 PM 61.0 °F 61.0 °F 100% 29.87 in 8.0 mi South 4.6 mph - N/A   Overcast
11:08 PM 60.8 °F 60.8 °F 100% 29.87 in 6.0 mi SSW 3.5 mph - N/A   Overcast
11:53 PM 62.1 °F 62.1 °F 100% 29.86 in 7.0 mi Calm Calm - N/A   Overcast